{"data":{"norad_id":65573,"intl_designator":"2025-203J","name":"PRAETORIAN SDA_610","alt_names":[],"object_type":"PAYLOAD","status":"ACTIVE","operator":null,"country":"US","launch_date":"2025-09-10","launch_site_code":"AFWTR","launch_vehicle":null,"mission":null,"orbit_class":"UNKNOWN","rcs_meters":null,"size_class":null,"mass_kg":null,"dimensions":null,"purposes":["military"],"wikipedia_slug":null,"has_3d_model":false,"image_url":null,"decayed_at":null,"tle_current":{"epoch":"2026-05-23T14:49:36.730272Z","epoch_age_seconds":191105,"freshness":"STALE","line1":"1 65573U 25203J   26143.61778623 -.00000032  00000+0 -39073-4 0  9996","line2":"2 65573  81.3017  33.5115 0005556 263.8511  96.2012 13.83916437 35297","mean_motion":13.83916437,"eccentricity":0.0005556,"inclination_deg":81.3017,"raan_deg":33.5115,"arg_perigee_deg":263.8511,"mean_anomaly_deg":96.2012,"bstar":-3.9073e-5,"rev_number":3529,"period_min":104.05252524651,"perigee_km":945.95687074774,"apogee_km":954.0999281396,"semimajor_km":7328.1653994437,"source":"CELESTRAK","updated_at":"2026-05-25T13:38:25.169752Z"}}}